Time,TemperatureF,DewpointF,PressureIn,WindDirection,WindDirectionDegrees,WindSpeedMPH,WindSpeedGustMPH,Humidity,HourlyPrecipIn,Conditions,Clouds,dailyrainin,SoftwareType,DateUTC
2013-03-19 00:06:00,67.8,61.0,29.94,NNW,347,1.0,4.9,79,0.00,,,-99.99,FreeWX 2.05,2013-03-19 04:06:00,
2013-03-19 00:16:00,67.6,60.8,29.94,North,-999,0.0,4.0,79,0.00,,,-99.99,FreeWX 2.05,2013-03-19 04:16:00,
2013-03-19 00:26:00,67.6,60.8,29.94,North,4,1.0,4.5,79,0.00,,,-99.99,FreeWX 2.05,2013-03-19 04:26:00,
2013-03-19 00:36:00,67.6,60.8,29.94,NE,41,1.0,5.4,79,0.00,,,-99.99,FreeWX 2.05,2013-03-19 04:36:00,
2013-03-19 00:46:00,67.6,60.8,29.94,NE,47,2.0,5.4,79,0.00,,,-99.99,FreeWX 2.05,2013-03-19 04:46:00,
2013-03-19 00:56:00,67.6,60.8,29.94,NE,51,2.0,5.8,79,0.00,,,-99.99,FreeWX 2.05,2013-03-19 04:56:00,
2013-03-19 01:06:00,67.5,60.8,29.94,North,-999,0.0,0.0,79,0.00,,,-99.99,FreeWX 2.05,2013-03-19 05:06:00,
2013-03-19 01:16:00,67.3,60.6,29.94,North,-999,0.0,0.0,79,0.00,,,-99.99,FreeWX 2.05,2013-03-19 05:16:00,
2013-03-19 01:37:00,66.7,60.1,29.91,North,-999,0.0,0.0,79,0.00,,,-99.99,FreeWX 2.05,2013-03-19 05:37:00,
2013-03-19 01:47:00,66.4,59.7,29.91,North,-999,0.0,0.0,79,0.00,,,-99.99,FreeWX 2.05,2013-03-19 05:47:00,
2013-03-19 01:57:00,66.2,59.5,29.91,North,-999,0.0,0.0,79,0.00,,,-99.99,FreeWX 2.05,2013-03-19 05:57:00,
2013-03-19 02:07:00,65.8,59.2,29.91,North,-999,0.0,0.0,79,0.00,,,-99.99,FreeWX 2.05,2013-03-19 06:07:00,
2013-03-19 02:17:00,65.7,59.0,29.91,North,-999,0.0,0.0,79,0.00,,,-99.99,FreeWX 2.05,2013-03-19 06:17:00,
2013-03-19 02:27:00,65.3,58.6,29.91,North,-999,0.0,0.0,79,0.00,,,-99.99,FreeWX 2.05,2013-03-19 06:27:00,
2013-03-19 02:37:00,65.1,58.5,29.94,North,-999,0.0,0.0,79,0.00,,,-99.99,FreeWX 2.05,2013-03-19 06:37:00,
2013-03-19 02:47:00,65.5,59.2,29.94,North,-999,0.0,0.0,80,0.00,,,-99.99,FreeWX 2.05,2013-03-19 06:47:00,
2013-03-19 02:57:00,65.5,59.2,29.94,North,-999,0.0,0.0,80,0.00,,,-99.99,FreeWX 2.05,2013-03-19 06:57:00,
2013-03-19 03:07:00,65.7,59.4,29.94,North,-999,0.0,3.6,80,0.00,,,-99.99,FreeWX 2.05,2013-03-19 07:07:00,
2013-03-19 03:17:00,65.7,59.4,29.97,North,-999,0.0,0.0,80,0.00,,,-99.99,FreeWX 2.05,2013-03-19 07:17:00,
2013-03-19 03:27:00,65.7,59.4,29.97,North,-999,0.0,0.0,80,0.00,,,-99.99,FreeWX 2.05,2013-03-19 07:27:00,
2013-03-19 03:37:00,65.3,59.0,29.94,North,-999,0.0,0.0,80,0.00,,,-99.99,FreeWX 2.05,2013-03-19 07:37:00,
2013-03-19 03:47:00,65.1,58.8,29.94,North,-999,0.0,0.0,80,0.00,,,-99.99,FreeWX 2.05,2013-03-19 07:47:00,
2013-03-19 03:57:00,64.8,58.5,29.94,North,-999,0.0,0.0,80,0.00,,,-99.99,FreeWX 2.05,2013-03-19 07:57:00,
2013-03-19 04:07:00,64.8,58.5,29.94,North,-999,0.0,0.0,80,0.00,,,-99.99,FreeWX 2.05,2013-03-19 08:07:00,
2013-03-19 04:17:00,64.6,58.3,29.94,North,-999,0.0,0.0,80,0.00,,,-99.99,FreeWX 2.05,2013-03-19 08:17:00,
2013-03-19 04:27:00,64.4,58.1,29.94,North,-999,0.0,0.0,80,0.00,,,-99.99,FreeWX 2.05,2013-03-19 08:27:00,
2013-03-19 04:37:00,64.4,58.5,29.94,North,-999,0.0,0.0,81,0.00,,,-99.99,FreeWX 2.05,2013-03-19 08:37:00,
2013-03-19 04:47:00,64.9,59.0,29.94,North,-999,0.0,3.1,81,0.00,,,-99.99,FreeWX 2.05,2013-03-19 08:47:00,
2013-03-19 04:57:00,65.1,59.2,29.94,North,-999,0.0,3.6,81,0.00,,,-99.99,FreeWX 2.05,2013-03-19 08:57:00,
2013-03-19 05:07:00,65.1,59.2,29.91,North,-999,0.0,0.0,81,0.00,,,-99.99,FreeWX 2.05,2013-03-19 09:07:00,
2013-03-19 05:17:00,64.9,59.4,29.94,North,-999,0.0,0.0,82,0.00,,,-99.99,FreeWX 2.05,2013-03-19 09:17:00,
2013-03-19 05:27:00,64.8,58.8,29.94,North,-999,0.0,0.0,81,0.00,,,-99.99,FreeWX 2.05,2013-03-19 09:27:00,
2013-03-19 05:37:00,64.6,59.0,29.94,North,-999,0.0,0.0,82,0.00,,,-99.99,FreeWX 2.05,2013-03-19 09:37:00,
2013-03-19 05:47:00,64.2,58.6,29.94,North,-999,0.0,0.0,82,0.00,,,-99.99,FreeWX 2.05,2013-03-19 09:47:00,
2013-03-19 05:57:00,64.0,58.5,29.94,North,-999,0.0,0.0,82,0.00,,,-99.99,FreeWX 2.05,2013-03-19 09:57:00,
2013-03-19 06:07:00,63.9,58.3,29.94,North,-999,0.0,0.0,82,0.00,,,-99.99,FreeWX 2.05,2013-03-19 10:07:00,
2013-03-19 06:17:00,63.7,58.1,29.97,North,-999,0.0,0.0,82,0.00,,,-99.99,FreeWX 2.05,2013-03-19 10:17:00,
2013-03-19 06:27:00,63.5,57.9,29.97,North,-999,0.0,0.0,82,0.00,,,-99.99,FreeWX 2.05,2013-03-19 10:27:00,
2013-03-19 06:37:00,63.5,57.9,29.97,North,-999,0.0,0.0,82,0.00,,,-99.99,FreeWX 2.05,2013-03-19 10:37:00,
2013-03-19 06:47:00,63.1,57.6,29.97,North,-999,0.0,0.0,82,0.00,,,-99.99,FreeWX 2.05,2013-03-19 10:47:00,
2013-03-19 06:57:00,63.3,58.1,29.97,North,-999,0.0,0.0,83,0.00,,,-99.99,FreeWX 2.05,2013-03-19 10:57:00,
2013-03-19 07:07:00,63.5,58.3,30.00,North,-999,0.0,0.0,83,0.00,,,-99.99,FreeWX 2.05,2013-03-19 11:07:00,
2013-03-19 07:17:00,63.7,58.5,29.97,North,-999,0.0,0.0,83,0.00,,,-99.99,FreeWX 2.05,2013-03-19 11:17:00,
2013-03-19 07:27:00,63.9,58.6,29.97,North,-999,0.0,0.0,83,0.00,,,-99.99,FreeWX 2.05,2013-03-19 11:27:00,
2013-03-19 07:37:00,63.9,58.6,29.97,North,-999,0.0,0.0,83,0.00,,,-99.99,FreeWX 2.05,2013-03-19 11:37:00,
2013-03-19 07:47:00,64.0,58.8,30.00,North,-999,0.0,0.0,83,0.00,,,-99.99,FreeWX 2.05,2013-03-19 11:47:00,
2013-03-19 07:57:00,64.0,58.8,30.00,North,-999,0.0,0.0,83,0.00,,,-99.99,FreeWX 2.05,2013-03-19 11:57:00,
2013-03-19 08:07:00,64.0,58.8,29.97,North,-999,0.0,0.0,83,0.00,,,-99.99,FreeWX 2.05,2013-03-19 12:07:00,
2013-03-19 08:17:00,64.0,58.8,30.00,North,-999,0.0,0.0,83,0.00,,,-99.99,FreeWX 2.05,2013-03-19 12:17:00,
2013-03-19 08:27:00,64.2,59.4,30.00,North,-999,0.0,0.0,84,0.00,,,-99.99,FreeWX 2.05,2013-03-19 12:27:00,
2013-03-19 08:37:00,64.8,59.7,30.00,North,-999,0.0,0.0,84,0.00,,,-99.99,FreeWX 2.05,2013-03-19 12:37:00,
2013-03-19 08:47:00,65.5,60.8,30.03,North,-999,0.0,0.0,85,0.00,,,-99.99,FreeWX 2.05,2013-03-19 12:47:00,
2013-03-19 08:57:00,66.2,61.5,30.03,North,-999,0.0,0.0,85,0.00,,,-99.99,FreeWX 2.05,2013-03-19 12:57:00,
2013-03-19 09:07:00,66.9,62.6,30.03,North,-999,0.0,0.0,86,0.00,,,-99.99,FreeWX 2.05,2013-03-19 13:07:00,
2013-03-19 09:17:00,67.6,63.3,30.03,North,-999,0.0,3.1,86,0.00,,,-99.99,FreeWX 2.05,2013-03-19 13:17:00,
2013-03-19 09:27:00,68.4,64.0,30.03,North,-999,0.0,2.7,86,0.00,,,-99.99,FreeWX 2.05,2013-03-19 13:27:00,
2013-03-19 09:37:00,68.7,64.8,30.00,West,280,1.0,3.6,87,0.00,,,-99.99,FreeWX 2.05,2013-03-19 13:37:00,
2013-03-19 09:47:00,69.3,65.3,30.03,West,261,1.0,4.0,87,0.00,,,-99.99,FreeWX 2.05,2013-03-19 13:47:00,
2013-03-19 09:57:00,69.4,65.1,30.03,WSW,253,2.0,4.0,86,0.00,,,-99.99,FreeWX 2.05,2013-03-19 13:57:00,
2013-03-19 10:07:00,70.3,66.0,30.00,North,-999,0.0,3.6,86,0.00,,,-99.99,FreeWX 2.05,2013-03-19 14:07:00,
2013-03-19 10:17:00,70.9,66.2,30.03,North,-999,0.0,3.6,85,0.00,,,-99.99,FreeWX 2.05,2013-03-19 14:17:00,
2013-03-19 10:27:00,71.1,64.9,30.03,North,-999,0.0,3.6,81,0.00,,,-99.99,FreeWX 2.05,2013-03-19 14:27:00,
2013-03-19 10:37:00,71.4,64.2,30.03,North,-999,0.0,3.1,78,0.00,,,-99.99,FreeWX 2.05,2013-03-19 14:37:00,
2013-03-19 10:47:00,71.6,62.4,30.00,North,-999,0.0,3.1,73,0.00,,,-99.99,FreeWX 2.05,2013-03-19 14:47:00,
2013-03-19 10:57:00,72.1,61.3,30.00,North,-999,0.0,0.0,69,0.00,,,-99.99,FreeWX 2.05,2013-03-19 14:57:00,
2013-03-19 11:07:00,72.1,58.5,30.00,North,-999,0.0,3.6,62,0.00,,,-99.99,FreeWX 2.05,2013-03-19 15:07:00,
2013-03-19 11:17:00,72.3,57.2,30.03,North,-999,0.0,2.7,59,0.00,,,-99.99,FreeWX 2.05,2013-03-19 15:17:00,
2013-03-19 11:27:00,73.0,57.4,30.03,North,-999,0.0,2.7,58,0.00,,,-99.99,FreeWX 2.05,2013-03-19 15:27:00,
2013-03-19 11:37:00,73.4,57.2,30.03,North,-999,0.0,0.0,57,0.00,,,-99.99,FreeWX 2.05,2013-03-19 15:37:00,
2013-03-19 11:47:00,73.9,57.7,30.03,NE,45,1.0,4.5,57,0.00,,,-99.99,FreeWX 2.05,2013-03-19 15:47:00,
2013-03-19 11:57:00,74.1,56.5,30.03,North,0,1.0,4.5,54,0.00,,,-99.99,FreeWX 2.05,2013-03-19 15:57:00,
2013-03-19 12:07:00,74.7,56.3,30.03,North,2,2.0,5.8,53,0.00,,,-99.99,FreeWX 2.05,2013-03-19 16:07:00,
2013-03-19 12:17:00,75.2,53.1,30.03,West,265,2.0,4.5,46,0.00,,,-99.99,FreeWX 2.05,2013-03-19 16:17:00,
2013-03-19 12:27:00,75.2,47.1,30.03,WSW,250,2.0,5.4,37,0.00,,,-99.99,FreeWX 2.05,2013-03-19 16:27:00,
2013-03-19 12:37:00,76.1,47.8,30.03,North,7,3.0,6.3,37,0.00,,,-99.99,FreeWX 2.05,2013-03-19 16:37:00,
2013-03-19 12:48:00,76.6,45.3,30.00,WNW,286,2.0,4.9,33,0.00,,,-99.99,FreeWX 2.05,2013-03-19 16:48:00,
2013-03-19 12:58:00,78.1,46.6,30.00,NW,325,2.0,6.3,33,0.00,,,-99.99,FreeWX 2.05,2013-03-19 16:58:00,
2013-03-19 13:08:00,78.3,46.0,30.00,West,260,2.0,4.9,32,0.00,,,-99.99,FreeWX 2.05,2013-03-19 17:08:00,
2013-03-19 13:18:00,78.4,46.0,30.00,WSW,241,2.0,4.5,32,0.00,,,-99.99,FreeWX 2.05,2013-03-19 17:18:00,
2013-03-19 13:28:00,79.2,45.9,30.00,West,266,2.0,5.4,31,0.00,,,-99.99,FreeWX 2.05,2013-03-19 17:28:00,
2013-03-19 13:38:00,79.2,45.9,30.00,WSW,252,2.0,4.9,31,0.00,,,-99.99,FreeWX 2.05,2013-03-19 17:38:00,
2013-03-19 13:48:00,79.5,46.2,30.00,SSW,205,1.0,4.0,31,0.00,,,-99.99,FreeWX 2.05,2013-03-19 17:48:00,
2013-03-19 13:58:00,79.9,45.7,30.00,SSW,201,1.0,4.0,30,0.00,,,-99.99,FreeWX 2.05,2013-03-19 17:58:00,
2013-03-19 14:08:00,80.6,46.2,29.97,West,275,2.0,5.4,30,0.00,,,-99.99,FreeWX 2.05,2013-03-19 18:08:00,
2013-03-19 14:18:00,81.0,45.7,29.97,WSW,251,1.0,4.0,29,0.00,,,-99.99,FreeWX 2.05,2013-03-19 18:18:00,
2013-03-19 14:28:00,81.1,43.9,29.97,WSW,241,1.0,4.0,27,0.00,,,-99.99,FreeWX 2.05,2013-03-19 18:28:00,
2013-03-19 14:38:00,82.2,45.9,29.94,ENE,75,3.0,10.1,28,0.00,,,-99.99,FreeWX 2.05,2013-03-19 18:38:00,
2013-03-19 14:48:00,82.6,47.1,29.94,SE,132,3.0,7.8,29,0.00,,,-99.99,FreeWX 2.05,2013-03-19 18:48:00,
2013-03-19 14:58:00,83.3,46.8,29.94,East,81,3.0,7.4,28,0.00,,,-99.99,FreeWX 2.05,2013-03-19 18:58:00,
2013-03-19 15:08:00,84.4,47.7,29.94,East,100,3.0,6.7,28,0.00,,,-99.99,FreeWX 2.05,2013-03-19 19:08:00,
2013-03-19 15:18:00,85.3,46.4,29.94,East,83,3.0,7.4,26,0.00,,,-99.99,FreeWX 2.05,2013-03-19 19:18:00,
2013-03-19 15:28:00,86.0,47.1,29.94,ENE,67,4.0,6.7,26,0.00,,,-99.99,FreeWX 2.05,2013-03-19 19:28:00,
2013-03-19 15:38:00,86.0,45.0,29.94,ENE,74,4.0,8.7,24,0.00,,,-99.99,FreeWX 2.05,2013-03-19 19:38:00,
2013-03-19 15:48:00,85.6,44.6,29.94,East,91,4.0,8.3,24,0.00,,,-99.99,FreeWX 2.05,2013-03-19 19:48:00,
2013-03-19 15:58:00,85.1,44.2,29.94,ENE,65,4.0,8.3,24,0.00,,,-99.99,FreeWX 2.05,2013-03-19 19:58:00,
2013-03-19 16:08:00,84.4,43.7,29.94,ESE,118,4.0,11.2,24,0.00,,,-99.99,FreeWX 2.05,2013-03-19 20:08:00,
2013-03-19 16:18:00,82.6,42.1,29.94,East,85,5.0,11.0,24,0.00,,,-99.99,FreeWX 2.05,2013-03-19 20:18:00,
2013-03-19 16:28:00,81.5,42.3,29.94,East,87,5.0,11.6,25,0.00,,,-99.99,FreeWX 2.05,2013-03-19 20:28:00,
2013-03-19 16:38:00,81.0,43.9,29.94,ENE,67,5.0,8.3,27,0.00,,,-99.99,FreeWX 2.05,2013-03-19 20:38:00,
2013-03-19 16:48:00,81.0,43.9,29.94,NE,56,4.0,9.6,27,0.00,,,-99.99,FreeWX 2.05,2013-03-19 20:48:00,
2013-03-19 16:58:00,80.6,43.5,29.94,ENE,61,5.0,9.6,27,0.00,,,-99.99,FreeWX 2.05,2013-03-19 20:58:00,
2013-03-19 17:08:00,80.4,43.3,29.94,East,86,4.0,8.7,27,0.00,,,-99.99,FreeWX 2.05,2013-03-19 21:08:00,
2013-03-19 17:18:00,79.9,43.9,29.94,East,99,4.0,10.5,28,0.00,,,-99.99,FreeWX 2.05,2013-03-19 21:18:00,
2013-03-19 17:28:00,79.2,43.2,29.94,East,95,4.0,10.1,28,0.00,,,-99.99,FreeWX 2.05,2013-03-19 21:28:00,
2013-03-19 17:38:00,79.0,44.1,29.94,ESE,103,3.0,6.7,29,0.00,,,-99.99,FreeWX 2.05,2013-03-19 21:38:00,
2013-03-19 17:48:00,78.3,44.2,29.94,East,93,4.0,8.7,30,0.00,,,-99.99,FreeWX 2.05,2013-03-19 21:48:00,
2013-03-19 17:58:00,77.9,43.9,29.94,East,84,4.0,7.4,30,0.00,,,-99.99,FreeWX 2.05,2013-03-19 21:58:00,
2013-03-19 18:08:00,77.7,43.9,29.94,ENE,77,4.0,7.4,30,0.00,,,-99.99,FreeWX 2.05,2013-03-19 22:08:00,
2013-03-19 18:18:00,77.4,44.4,29.94,East,87,4.0,7.4,31,0.00,,,-99.99,FreeWX 2.05,2013-03-19 22:18:00,
2013-03-19 18:28:00,76.8,43.9,29.94,East,97,3.0,6.9,31,0.00,,,-99.99,FreeWX 2.05,2013-03-19 22:28:00,
2013-03-19 18:38:00,76.5,43.5,29.97,East,96,3.0,6.3,31,0.00,,,-99.99,FreeWX 2.05,2013-03-19 22:38:00,
2013-03-19 18:48:00,76.1,43.3,29.97,East,84,4.0,8.3,31,0.00,,,-99.99,FreeWX 2.05,2013-03-19 22:48:00,
2013-03-19 18:58:00,75.4,42.6,29.97,ESE,113,3.0,10.1,31,0.00,,,-99.99,FreeWX 2.05,2013-03-19 22:58:00,
2013-03-19 19:08:00,74.5,42.6,29.97,East,98,3.0,8.3,32,0.00,,,-99.99,FreeWX 2.05,2013-03-19 23:08:00,
2013-03-19 19:18:00,73.6,42.6,29.97,SE,132,2.0,6.7,33,0.00,,,-99.99,FreeWX 2.05,2013-03-19 23:18:00,
2013-03-19 19:28:00,73.0,42.3,29.97,ESE,109,1.0,4.9,33,0.00,,,-99.99,FreeWX 2.05,2013-03-19 23:28:00,
2013-03-19 19:38:00,72.5,42.4,29.97,North,-999,0.0,4.5,34,0.00,,,-99.99,FreeWX 2.05,2013-03-19 23:38:00,
2013-03-19 19:48:00,72.0,42.8,29.97,North,-999,0.0,2.7,35,0.00,,,-99.99,FreeWX 2.05,2013-03-19 23:48:00,
2013-03-19 19:58:00,71.6,43.2,29.97,North,-999,0.0,2.7,36,0.00,,,-99.99,FreeWX 2.05,2013-03-19 23:58:00,
2013-03-19 20:08:00,71.2,43.7,29.97,North,-999,0.0,0.0,37,0.00,,,-99.99,FreeWX 2.05,2013-03-20 00:08:00,
2013-03-19 20:18:00,71.1,44.2,29.97,North,-999,0.0,0.0,38,0.00,,,-99.99,FreeWX 2.05,2013-03-20 00:18:00,
2013-03-19 20:28:00,70.9,44.1,29.97,North,-999,0.0,2.7,38,0.00,,,-99.99,FreeWX 2.05,2013-03-20 00:28:00,
2013-03-19 20:38:00,70.7,44.6,29.97,North,-999,0.0,2.7,39,0.00,,,-99.99,FreeWX 2.05,2013-03-20 00:38:00,
2013-03-19 20:48:00,70.3,44.8,29.97,North,-999,0.0,2.7,40,0.00,,,-99.99,FreeWX 2.05,2013-03-20 00:48:00,
2013-03-19 20:58:00,70.2,45.3,29.97,North,-999,0.0,0.0,41,0.00,,,-99.99,FreeWX 2.05,2013-03-20 00:58:00,
2013-03-19 21:08:00,69.8,45.7,29.97,North,-999,0.0,3.6,42,0.00,,,-99.99,FreeWX 2.05,2013-03-20 01:08:00,
2013-03-19 21:18:00,69.6,46.0,29.97,North,-999,0.0,3.1,43,0.00,,,-99.99,FreeWX 2.05,2013-03-20 01:18:00,
2013-03-19 21:28:00,69.3,46.4,29.97,North,-999,0.0,4.9,44,0.00,,,-99.99,FreeWX 2.05,2013-03-20 01:28:00,
2013-03-19 21:38:00,69.1,46.8,29.97,North,-999,0.0,4.9,45,0.00,,,-99.99,FreeWX 2.05,2013-03-20 01:38:00,
2013-03-19 21:48:00,68.9,47.8,29.97,North,-999,0.0,4.0,47,0.00,,,-99.99,FreeWX 2.05,2013-03-20 01:48:00,
2013-03-19 21:58:00,68.7,48.2,29.97,North,-999,0.0,3.1,48,0.00,,,-99.99,FreeWX 2.05,2013-03-20 01:58:00,
2013-03-19 22:08:00,68.7,48.7,29.97,North,-999,0.0,3.1,49,0.00,,,-99.99,FreeWX 2.05,2013-03-20 02:08:00,
2013-03-19 22:18:00,68.5,48.6,29.97,North,-999,0.0,0.0,49,0.00,,,-99.99,FreeWX 2.05,2013-03-20 02:18:00,
2013-03-19 22:28:00,68.4,48.9,29.97,North,-999,0.0,0.0,50,0.00,,,-99.99,FreeWX 2.05,2013-03-20 02:28:00,
2013-03-19 22:38:00,68.2,49.3,29.97,North,-999,0.0,0.0,51,0.00,,,-99.99,FreeWX 2.05,2013-03-20 02:38:00,
2013-03-19 22:48:00,68.0,49.6,29.97,North,-999,0.0,0.0,52,0.00,,,-99.99,FreeWX 2.05,2013-03-20 02:48:00,
2013-03-19 22:58:00,67.6,49.8,29.97,North,-999,0.0,0.0,53,0.00,,,-99.99,FreeWX 2.05,2013-03-20 02:58:00,
2013-03-19 23:08:00,67.5,50.2,30.00,North,-999,0.0,0.0,54,0.00,,,-99.99,FreeWX 2.05,2013-03-20 03:08:00,
2013-03-19 23:18:00,67.1,49.8,30.00,North,-999,0.0,0.0,54,0.00,,,-99.99,FreeWX 2.05,2013-03-20 03:18:00,
2013-03-19 23:28:00,67.1,50.9,30.00,North,-999,0.0,0.0,56,0.00,,,-99.99,FreeWX 2.05,2013-03-20 03:28:00,
2013-03-19 23:38:00,67.1,51.3,30.00,North,-999,0.0,0.0,57,0.00,,,-99.99,FreeWX 2.05,2013-03-20 03:38:00,
2013-03-19 23:48:00,67.1,51.8,30.00,North,-999,0.0,0.0,58,0.00,,,-99.99,FreeWX 2.05,2013-03-20 03:48:00,
2013-03-19 23:58:00,66.7,52.0,30.00,North,-999,0.0,0.0,59,0.00,,,-99.99,FreeWX 2.05,2013-03-20 03:58:00,